RH
31 30 24 14 12 13 12 11 10 10 9 7 6 6 6 6 5 6 7 7 9 10 10 12 12 12 12 13 17 22 34 96 100 100 100 100 100 100 100 100 100 95 98 100 91 64 59
36 30 19 13 13 13 12 11 10 9 8 6 5 5 5 6 7 5 5 7 8 10 11 12 12 12 14 15 14 24 33 41 93 100 100 100 100 100 100 100 100 100 100 100 100 98 91
32 32 16 13 14 13 13 11 8 8 7 5 5 5 4 4 4 4 4 4 6 9 12 11 13 13 14 17 20 24 28 47 48 95 100 100 100 100 100 100 100 100 100 100 100 100 100
31 26 14 12 14 13 13 10 7 8 6 5 5 4 4 3 2 2 2 2 3 6 11 12 12 13 16 14 18 27 30 39 60 65 98 100 100 100 100 100 100 100 100 100 100 100 97
26 18 13 13 13 13 13 10 6 7 5 4 4 3 3 2 2 3 3 3 3 3 8 14 13 14 15 17 20 24 33 38 69 67 78 93 100 100 100 100 100 100 100 100 100 100 100
23 16 12 13 14 13 12 8 6 6 5 5 3 3 2 2 2 2 2 3 3 3 4 10 16 14 15 20 17 21 27 33 70 67 78 87 90 97 100 100 100 100 100 100 100 100 99
17 13 12 14 13 12 11 7 5 6 4 4 3 3 2 2 2 2 2 3 4 3 3 7 21 21 20 16 16 17 25 23 54 74 65 85 95 85 100 100 100 100 100 100 100 100 99
16 13 13 13 11 10 10 6 5 5 4 4 3 3 2 2 2 2 2 3 4 4 4 6 20 25 21 17 17 20 26 26 38 98 78 76 97 100 95 99 100 100 100 100 100 100 100
15 14 14 12 11 9 10 6 6 5 4 4 3 2 2 2 2 2 2 3 4 4 4 7 28 36 25 19 21 26 25 29 45 88 100 80 77 85 86 91 95 100 100 100 100 100 100
14 13 13 11 10 9 9 6 6 5 5 4 3 2 2 2 2 1 2 3 3 4 3 10 30 34 26 19 22 22 27 24 29 74 98 85 76 72 90 93 95 95 100 100 100 100 100
13 13 12 9 9 8 9 6 5 5 5 4 4 2 2 2 2 1 2 3 3 4 4 14 31 32 27 27 32 33 31 34 32 57 90 99 100 100 82 81 93 99 100 99 87 99 100
13 13 11 8 8 8 9 6 5 6 5 4 3 2 2 2 2 1 2 3 3 4 6 17 28 30 31 38 43 40 38 43 42 40 85 96 90 100 97 75 82 90 97 86 94 95 91
12 12 10 8 8 7 9 6 5 6 5 4 4 2 3 2 2 2 2 2 4 4 13 26 35 40 42 56 64 47 44 36 40 54 90 92 87 90 100 96 84 86 88 92 97 94 97
12 12 9 9 7 8 9 6 6 6 6 4 3 2 3 2 2 2 2 3 5 12 22 38 43 44 44 48 49 36 35 35 50 69 80 85 84 95 100 100 100 89 93 97 97 84 74
12 11 9 8 8 8 8 6 6 7 6 4 4 3 3 2 2 2 3 4 9 20 37 45 42 42 58 65 51 40 34 38 69 59 65 69 78 81 89 99 94 90 90 95 94 86 82
12 11 9 8 8 7 8 6 6 8 6 5 4 3 4 3 3 3 3 4 12 30 44 59 77 78 69 58 46 40 38 44 50 65 58 71 77 87 89 90 98 98 91 82 76 76 79
12 11 8 7 8 7 8 6 6 8 7 5 4 3 4 4 4 4 4 5 15 37 55 70 75 73 72 54 45 38 39 39 42 55 68 65 68 77 82 92 100 99 85 61 56 63 76
11 11 8 8 8 7 8 6 5 8 8 5 5 4 6 6 5 5 5 8 27 45 48 65 75 79 52 52 54 57 50 46 54 59 64 70 78 85 99 95 94 90 86 78 66 80 80
10 9 7 8 8 7 8 7 5 7 8 6 6 5 7 7 7 7 7 17 38 49 55 70 74 70 76 90 94 82 81 74 79 78 71 65 78 89 91 94 85 70 66 79 96 89 82
10 8 7 7 8 8 8 7 6 6 7 8 7 7 8 9 10 10 11 20 36 51 65 71 67 77 83 94 97 100 100 96 94 94 93 88 84 90 98 97 92 90 96 97 93 97 84
8 7 7 8 8 8 9 8 6 7 9 9 9 11 8 11 14 19 27 40 48 60 72 76 75 82 84 94 100 100 100 100 100 97 95 94 99 100 100 98 90 94 91 78 85 82 70
8 7 8 8 9 8 10 11 8 7 8 9 10 13 13 12 15 23 34 51 62 72 75 70 80 78 80 97 96 100 94 98 99 98 99 100 98 93 84 75 75 80 76 68 68 69 72
8 8 8 8 9 9 11 12 10 9 8 8 10 14 18 14 14 21 32 48 65 75 79 80 89 83 89 92 95 98 100 100 100 93 83 72 74 83 85 83 76 64 67 70 73 79 74
8 8 7 8 9 9 12 13 10 9 9 9 10 12 18 21 15 17 26 34 51 72 84 87 87 91 91 88 94 100 100 100 93 90 94 98 97 83 73 68 66 69 66 70 76 99 77
8 8 6 8 9 10 11 13 11 11 9 9 9 10 15 26 17 16 19 25 41 61 80 86 89 97 91 92 98 100 100 100 100 99 98 92 80 74 70 68 68 68 73 80 76 75 73
8 7 7 9 9 10 12 14 11 11 10 10 9 10 12 17 26 13 17 22 39 54 71 82 93 94 99 98 96 98 100 100 100 98 95 89 75 73 66 67 73 76 86 82 72 80 63
7 7 7 9 10 10 12 13 12 11 10 10 10 10 10 14 24 17 14 17 21 46 60 79 88 93 96 98 99 100 99 100 100 100 98 82 83 69 71 70 84 81 100 90 94 72 66
7 7 7 9 10 11 12 13 11 11 10 11 10 9 10 12 18 18 11 15 20 28 41 60 82 85 87 94 97 98 98 96 99 100 100 95 82 76 86 80 93 88 95 98 83 73 73
7 7 7 9 10 12 12 12 11 10 10 11 10 9 9 11 14 12 9 14 15 19 26 39 56 77 81 90 95 95 100 99 99 100 96 91 84 87 96 89 99 92 90 88 83 73 77
Wind_Speed
104 108 111 108 109 111 111 111 107 106 99 90 84 80 74 69 67 61 47 44 41 45 51 58 67 76 83 89 94 96 102 108 105 100 98 98 98 99 96 94 94 89 88 88 90 91 87
108 110 111 110 110 111 113 112 110 107 101 90 87 82 75 67 58 60 56 43 42 43 48 55 64 72 80 86 94 93 96 104 108 103 100 96 94 94 97 95 90 87 88 88 86 86 86
109 112 112 111 112 114 116 114 113 109 101 93 90 86 77 65 54 52 52 49 41 44 48 52 61 69 77 87 90 92 95 98 104 107 100 96 96 90 91 90 88 88 87 87 86 88 86
111 113 112 112 114 117 116 114 115 108 99 93 91 86 76 64 51 42 40 46 37 44 48 51 56 63 74 81 88 92 91 93 97 103 107 103 94 92 89 88 86 84 84 84 88 89 87
112 113 113 115 117 119 117 115 114 108 99 96 92 86 75 60 44 35 31 34 34 43 49 52 51 60 74 77 86 90 91 91 94 96 103 106 101 94 90 88 86 82 80 81 83 82 83
112 113 116 117 121 119 117 117 115 107 101 97 94 86 73 56 42 33 26 27 31 40 49 51 48 57 66 75 81 86 90 89 92 95 95 102 102 100 92 86 83 83 83 81 79 78 75
113 115 118 119 122 117 115 116 115 107 101 97 92 85 69 54 46 33 23 23 28 36 43 42 43 47 62 71 75 80 85 87 90 91 90 91 98 95 94 89 88 85 81 77 76 76 73
114 116 119 121 120 115 116 118 115 108 102 100 92 83 66 56 48 33 21 19 23 29 36 41 46 51 60 68 74 78 79 83 85 85 87 84 89 98 97 96 92 86 79 78 79 77 72
116 118 120 120 117 114 117 120 115 108 104 102 94 82 63 58 48 31 17 14 21 28 36 41 48 49 53 61 67 71 74 79 86 87 85 82 83 93 96 95 92 90 85 82 80 75 72
116 118 121 118 114 114 118 121 116 108 104 101 93 78 63 57 43 28 14 10 21 27 36 45 47 46 45 53 60 66 67 72 77 83 86 81 80 78 86 91 92 90 88 86 85 80 74
115 119 121 115 113 115 119 121 115 106 103 98 88 73 62 54 39 22 10 5 16 23 35 47 48 43 43 47 52 54 57 63 67 77 83 82 79 75 77 81 86 88 85 85 87 86 83
116 119 118 114 114 116 117 120 113 106 103 96 85 68 61 52 37 15 5 5 12 24 37 44 42 36 36 42 44 45 52 59 63 68 79 80 81 78 74 74 75 81 84 85 82 83 81
117 119 115 115 115 115 116 117 111 103 101 94 83 66 57 47 39 22 3 16 20 26 35 36 33 36 39 41 37 41 47 51 56 64 73 79 76 77 75 72 69 73 78 80 79 80 81
116 118 113 113 114 114 114 117 109 102 98 92 79 63 51 43 36 21 7 21 30 35 35 37 33 36 36 35 35 40 42 46 55 61 65 70 68 69 75 74 69 68 67 68 70 73 73
116 114 111 112 113 113 112 114 105 100 95 89 76 60 49 40 29 15 12 27 33 36 35 30 31 33 28 27 30 31 36 42 51 55 58 58 59 63 65 71 72 69 66 70 71 72 72
116 111 109 111 114 112 109 110 102 96 93 86 71 55 49 39 29 15 5 20 35 36 36 35 31 27 27 27 29 32 34 40 47 53 53 53 54 57 59 61 61 60 61 62 63 62 64
113 108 108 111 113 110 105 105 98 91 88 81 66 53 47 38 28 12 6 18 32 38 38 35 32 31 26 26 28 30 31 34 37 45 49 50 49 51 52 53 53 55 56 55 53 53 53
107 105 106 109 111 107 102 101 95 85 84 80 66 52 44 35 26 13 3 19 32 34 32 29 24 18 18 24 24 24 26 28 29 34 39 41 41 43 47 51 52 53 52 53 49 50 53
101 102 105 108 109 103 98 97 92 80 75 74 64 52 40 32 24 14 6 24 31 31 31 28 25 24 23 20 20 23 25 26 27 28 30 31 31 31 31 31 34 36 37 36 38 40 40
98 100 103 105 104 99 94 93 89 81 78 72 64 52 39 28 21 15 6 21 27 28 26 23 23 21 24 28 28 27 28 27 27 27 27 26 26 26 28 30 30 29 28 29 30 33 37
96 98 101 101 99 95 88 90 87 79 73 68 60 52 40 28 21 10 17 19 23 25 22 22 24 24 27 26 26 26 28 26 26 25 24 24 24 25 26 27 25 25 26 25 26 27 28
93 96 99 96 92 88 82 84 84 76 68 62 56 47 40 24 14 7 19 22 23 21 20 21 24 26 28 30 32 33 31 28 26 24 23 23 24 24 23 21 21 22 20 20 21 25 22
92 95 96 91 85 81 77 78 78 75 68 61 52 44 38 26 18 3 18 21 22 21 20 22 25 28 33 35 34 30 25 22 22 23 24 23 22 23 22 21 19 18 18 19 18 18 16
93 94 93 86 81 75 72 72 73 70 66 58 51 40 33 30 16 13 16 23 26 25 24 25 28 32 35 36 31 26 25 24 23 24 24 24 23 21 18 15 16 16 15 18 19 16 13
92 92 89 81 76 70 68 68 70 68 64 58 52 41 31 27 24 13 18 25 27 26 26 27 30 33 34 33 31 30 27 26 25 22 22 20 18 16 16 16 14 14 18 23 27 23 16
90 88 83 77 71 67 63 63 65 65 63 58 53 46 32 25 24 20 17 24 29 29 28 28 33 35 37 36 34 32 29 25 22 21 20 17 16 16 17 13 12 14 21 23 20 17 16
87 82 78 72 68 62 59 61 61 63 59 55 53 49 37 27 23 23 21 22 31 36 33 32 33 37 39 38 36 34 31 28 25 22 20 17 17 16 14 11 11 18 27 24 20 18 14
80 76 74 67 63 59 57 58 60 59 57 54 54 49 41 29 24 24 24 26 30 39 38 39 36 36 38 39 38 35 33 31 27 24 23 21 19 17 13 12 15 22 26 26 23 17 19
74 73 70 64 60 55 55 56 57 56 52 52 53 50 41 32 26 22 23 27 29 30 39 36 38 37 36 37 38 36 36 32 29 27 25 23 21 18 16 15 18 21 27 28 24 21 21
Wind_Direction
344 345 344 345 344 343 343 343 343 343 342 340 338 334 329 321 312 302 290 273 254 239 232 228 226 224 223 218 218 218 217 219 219 220 223 224 225 228 229 230 231 233 233 235 238 240 242
344 344 343 344 343 343 342 342 343 343 341 340 337 333 328 319 306 298 291 271 254 238 231 228 225 223 222 220 218 217 217 219 219 220 221 223 223 226 229 230 231 231 233 235 238 240 241
342 343 342 342 342 343 342 341 343 344 342 341 337 333 328 320 309 293 284 274 251 235 229 226 223 221 221 221 218 216 218 217 219 219 220 222 223 224 227 228 228 229 232 234 235 237 237
341 341 340 341 342 342 341 341 344 344 342 341 337 334 330 324 313 298 283 271 251 234 226 222 221 219 220 219 219 218 216 217 218 219 220 221 222 222 225 228 229 229 231 233 236 237 239
340 339 338 341 343 342 341 341 345 345 343 342 339 336 333 327 319 304 286 268 248 232 223 218 216 216 220 218 217 218 216 217 217 218 220 221 222 222 224 225 228 229 230 231 234 235 239
338 338 339 342 342 342 341 341 346 345 344 343 341 338 335 332 327 314 291 266 246 230 221 214 210 214 216 218 218 217 218 217 217 219 218 220 222 222 223 224 228 226 227 231 233 236 237
338 339 339 341 341 342 341 342 347 346 345 343 344 340 337 337 333 319 293 258 242 232 220 209 207 212 215 219 218 217 217 217 216 220 218 219 222 223 224 225 226 227 228 231 233 235 237
338 339 339 340 341 343 342 343 348 347 346 345 346 342 341 342 336 322 298 250 230 230 213 201 200 207 212 214 216 216 214 217 217 217 222 220 220 222 224 225 226 226 228 229 231 235 235
338 337 338 340 341 343 342 344 348 347 347 347 347 345 344 345 338 327 304 251 215 215 203 189 197 208 208 212 214 214 214 215 214 213 219 221 220 221 223 225 227 227 228 229 231 232 234
336 336 337 340 341 343 343 344 348 348 349 349 347 345 347 347 341 337 313 242 216 207 192 184 194 204 206 210 211 215 216 216 215 215 220 223 224 223 223 225 227 228 232 234 232 231 232
336 336 337 339 341 344 343 344 348 348 349 350 347 346 350 349 347 347 348 250 211 198 183 183 191 194 199 204 207 210 211 212 214 217 218 221 221 222 225 225 226 228 232 235 236 236 236
335 335 336 338 340 343 343 343 348 348 349 351 349 348 353 353 353 348 61 104 178 169 171 179 185 188 194 200 203 206 205 208 213 214 217 221 223 222 228 229 228 228 231 234 238 241 243
333 334 336 337 340 343 343 343 348 348 350 352 349 353 356 357 354 346 103 135 146 150 162 166 172 185 189 191 194 201 205 208 210 212 213 219 222 225 224 232 231 230 230 232 236 239 242
332 333 334 336 338 342 342 342 348 348 350 352 351 356 359 357 1 355 72 129 135 145 152 165 175 178 187 189 196 202 202 206 209 210 212 216 222 225 227 228 232 234 234 236 239 241 245
330 331 332 334 337 340 342 340 348 348 350 352 353 358 0 3 5 9 129 142 141 148 152 162 173 176 171 184 195 199 202 204 208 211 213 215 218 221 226 229 235 238 237 236 240 244 247
329 330 331 333 335 339 341 339 347 348 351 352 355 0 3 6 6 7 147 156 148 150 153 155 160 160 171 182 190 194 196 202 208 212 215 217 218 220 224 227 232 236 239 241 243 245 249
327 328 330 332 333 337 340 338 346 350 349 353 359 4 6 9 10 25 123 148 146 148 153 154 160 163 170 180 182 189 194 200 205 212 217 217 219 220 224 228 230 234 238 243 247 248 249
325 326 329 331 332 337 338 337 344 352 350 354 1 10 12 14 16 16 76 143 147 149 150 145 147 152 171 171 173 177 186 191 196 205 210 215 218 225 231 234 237 238 241 246 247 246 247
323 325 327 330 331 335 337 335 343 352 353 356 1 12 16 18 17 19 127 148 148 150 149 148 154 158 157 159 162 172 177 179 184 190 196 199 200 201 207 212 219 226 231 237 242 247 251
322 324 326 330 331 334 336 333 341 350 353 359 0 10 16 20 24 32 95 149 147 147 145 150 154 157 160 163 167 173 173 175 178 179 183 187 188 193 203 210 217 220 225 232 242 247 250
321 323 325 329 330 332 335 332 339 348 353 358 359 6 12 14 24 89 139 142 147 146 149 155 156 161 160 157 163 168 176 176 178 179 179 179 183 189 199 208 217 225 230 231 226 238 251
321 322 324 328 330 331 333 330 335 344 350 355 0 2 7 7 6 119 155 152 154 154 156 160 160 163 158 158 157 157 159 160 169 176 179 188 198 204 210 209 198 198 205 220 237 248 259
320 322 324 326 328 330 331 328 332 338 346 351 359 359 1 353 348 284 175 170 167 167 164 166 161 161 157 157 156 157 159 166 178 183 184 183 177 176 180 182 194 204 220 236 232 226 227
319 321 323 325 326 328 327 326 329 335 341 346 353 357 357 349 329 301 218 199 184 177 173 174 169 166 165 162 162 163 165 166 165 161 159 161 172 183 190 195 202 221 222 209 209 220 242
318 319 321 323 325 326 325 324 327 331 337 342 347 351 351 345 330 290 261 227 205 191 180 181 178 174 174 171 170 167 168 166 167 168 171 177 191 195 201 200 214 215 210 209 217 230 249
315 318 319 321 322 325 324 321 324 327 334 337 340 343 345 339 326 302 255 238 218 204 194 188 187 182 181 180 181 179 179 181 184 184 187 196 201 204 199 205 219 213 202 213 223 247 267
313 316 317 320 320 323 322 319 321 325 331 334 335 335 335 332 322 303 266 242 232 215 206 196 193 192 188 189 189 190 191 192 195 198 203 211 213 207 208 221 221 219 214 220 233 257 285
313 314 315 319 319 320 320 317 318 323 329 330 331 329 326 323 315 298 269 238 232 228 219 207 198 197 198 198 198 198 198 197 198 205 209 216 211 205 219 231 228 218 217 229 242 268 279
311 312 314 317 317 318 316 313 318 322 328 326 325 323 319 315 310 292 264 243 227 232 240 230 208 201 199 202 203 201 199 204 207 209 211 208 205 207 226 236 231 228 227 235 248 267 275